Find Starlink 32907

NORAD ID: 63095 Int'l Des: 2025-037 Owner: SPXS Country: US Constellation: starlink operational
LEOCIRCULAR

Current View

Loading 3D Globe...

About Starlink 32907

Starlink 32907 (NORAD 63095) is a starlink constellation satellite (v2 mini) launched Feb 23, 2025 by SPXS of US. It operates in LEO, CIRCULAR orbit with a mass of 730.00 kg.

Upcoming Passes

Passes for default location (London). Set your location on the main map for personalized predictions.

Altitude History

Loading altitude history...

Two-Line Element Set

1 63095U 25037U 26237.34617038 .00003278 00000-0 28234-3 0 9994
2 63095 70.0014 289.2702 0003394 267.3725 92.7046 14.98335428 83813
Epoch: Aug 25, 2026 • Age: 15 hours

Current Status

Altitude 577.7 km
Apogee / Perigee N/A
Velocity 7.57 km/s
Sub-Earth Point 35.13°N, 15.15°W
Launch Date Feb 23, 2025
Age 1.5 years
Type internet

Technical Details

Classification Payload
Mass 730.00 kg
Dry Mass 700.00 kg
Total Mass 730.00 kg
Length 0.30 m
Diameter 4.10 m
Span 29.00 m
Shape Box + pan
Manufacturer SPXS
Bus Type Starlink V2M
Phase Status In Orbit
Owner/State SPXS/US

Most Searched